TimeCDT,TemperatureF,Dew PointF,Humidity,Sea Level PressureIn,VisibilityMPH,Wind Direction,Wind SpeedMPH,Gust SpeedMPH,PrecipitationIn,Events,Conditions,WindDirDegrees,DateUTC
12:15 AM,30.2,21.2,69,30.38,10.0,ESE,4.6,-,N/A,,Clear,110,2012-10-27 05:15:00
12:35 AM,28.4,19.4,69,30.37,10.0,ESE,6.9,-,N/A,,Clear,120,2012-10-27 05:35:00
12:55 AM,28.4,19.4,69,30.36,10.0,ESE,4.6,-,N/A,,Clear,110,2012-10-27 05:55:00
1:15 AM,28.4,19.4,69,30.36,10.0,ESE,5.8,-,N/A,,Clear,110,2012-10-27 06:15:00
1:35 AM,30.2,21.2,69,30.36,10.0,ESE,6.9,-,N/A,,Clear,120,2012-10-27 06:35:00
1:55 AM,30.2,21.2,69,30.35,10.0,ESE,6.9,-,N/A,,Clear,110,2012-10-27 06:55:00
2:15 AM,28.4,19.4,69,30.35,10.0,SSE,6.9,-,N/A,,Clear,160,2012-10-27 07:15:00
2:35 AM,26.6,19.4,74,30.34,10.0,SE,6.9,-,N/A,,Clear,140,2012-10-27 07:35:00
2:55 AM,26.6,19.4,74,30.34,10.0,SE,5.8,-,N/A,,Clear,140,2012-10-27 07:55:00
3:35 AM,24.8,17.6,74,30.33,10.0,SSE,6.9,-,N/A,,Clear,160,2012-10-27 08:35:00
3:55 AM,23.0,17.6,80,30.32,10.0,South,8.1,-,N/A,,Clear,170,2012-10-27 08:55:00
4:15 AM,23.0,17.6,80,30.31,10.0,South,8.1,-,N/A,,Clear,170,2012-10-27 09:15:00
4:35 AM,23.0,17.6,80,30.32,10.0,South,6.9,-,N/A,,Clear,170,2012-10-27 09:35:00
4:55 AM,23.0,17.6,80,30.30,10.0,SSE,6.9,-,N/A,,Clear,150,2012-10-27 09:55:00
5:15 AM,21.2,17.6,86,30.30,10.0,South,9.2,-,N/A,,Clear,170,2012-10-27 10:15:00
5:35 AM,24.8,19.4,80,30.31,10.0,South,8.1,-,N/A,,Clear,180,2012-10-27 10:35:00
5:55 AM,23.0,17.6,80,30.31,10.0,South,9.2,-,N/A,,Clear,170,2012-10-27 10:55:00
6:15 AM,23.0,17.6,80,30.30,10.0,South,9.2,-,N/A,,Clear,170,2012-10-27 11:15:00
6:55 AM,23.0,17.6,80,30.30,10.0,South,9.2,-,N/A,,Clear,170,2012-10-27 11:55:00
7:15 AM,21.2,17.6,86,30.31,10.0,South,6.9,-,N/A,,Clear,170,2012-10-27 12:15:00
7:35 AM,23.0,17.6,80,30.30,10.0,SSE,5.8,-,N/A,,Clear,150,2012-10-27 12:35:00
7:55 AM,24.8,19.4,80,30.31,10.0,SSE,6.9,-,N/A,,Clear,150,2012-10-27 12:55:00
8:15 AM,23.0,17.6,80,30.32,10.0,SSE,8.1,-,N/A,,Clear,160,2012-10-27 13:15:00
8:35 AM,26.6,21.2,80,30.32,10.0,South,10.4,-,N/A,,Clear,180,2012-10-27 13:35:00
9:15 AM,32.0,23.0,69,30.32,10.0,South,11.5,-,N/A,,Clear,170,2012-10-27 14:15:00
9:35 AM,32.0,23.0,69,30.33,10.0,South,11.5,-,N/A,,Clear,170,2012-10-27 14:35:00
9:55 AM,33.8,23.0,65,30.32,10.0,South,12.7,-,N/A,,Clear,170,2012-10-27 14:55:00
10:15 AM,35.6,23.0,60,30.32,10.0,SSE,12.7,-,N/A,,Clear,160,2012-10-27 15:15:00
10:35 AM,37.4,21.2,52,30.30,10.0,SSE,13.8,-,N/A,,Clear,160,2012-10-27 15:35:00
10:55 AM,37.4,23.0,56,30.32,10.0,South,10.4,-,N/A,,Clear,180,2012-10-27 15:55:00
11:15 AM,39.2,23.0,52,30.30,10.0,South,9.2,-,N/A,,Clear,180,2012-10-27 16:15:00
11:35 AM,41.0,23.0,49,30.28,10.0,South,11.5,17.3,N/A,,Clear,190,2012-10-27 16:35:00
11:55 AM,42.8,23.0,46,30.27,10.0,South,13.8,18.4,N/A,,Clear,190,2012-10-27 16:55:00
12:15 PM,44.6,23.0,43,30.26,10.0,SSW,12.7,-,N/A,,Clear,200,2012-10-27 17:15:00
12:35 PM,44.6,23.0,43,30.25,10.0,SSW,12.7,17.3,N/A,,Clear,200,2012-10-27 17:35:00
12:55 PM,46.4,23.0,40,30.24,10.0,South,10.4,18.4,N/A,,Clear,190,2012-10-27 17:55:00
1:15 PM,48.2,23.0,37,30.23,10.0,South,12.7,17.3,N/A,,Clear,190,2012-10-27 18:15:00
1:35 PM,50.0,23.0,35,30.21,10.0,South,10.4,-,N/A,,Clear,190,2012-10-27 18:35:00
1:55 PM,50.0,21.2,32,30.19,10.0,SSW,8.1,11.5,N/A,,Clear,200,2012-10-27 18:55:00
2:15 PM,50.0,21.2,32,30.18,10.0,South,12.7,16.1,N/A,,Clear,190,2012-10-27 19:15:00
2:35 PM,50.0,21.2,32,30.17,10.0,SW,11.5,17.3,N/A,,Clear,220,2012-10-27 19:35:00
2:55 PM,50.0,21.2,32,30.16,10.0,SSW,10.4,17.3,N/A,,Clear,210,2012-10-27 19:55:00
3:15 PM,51.8,21.2,30,30.16,10.0,SW,15.0,19.6,N/A,,Clear,220,2012-10-27 20:15:00
3:35 PM,51.8,21.2,30,30.16,10.0,SW,11.5,23.0,N/A,,Clear,230,2012-10-27 20:35:00
3:55 PM,51.8,21.2,30,30.16,10.0,SSW,10.4,19.6,N/A,,Clear,200,2012-10-27 20:55:00
4:15 PM,51.8,21.2,30,30.14,10.0,South,5.8,17.3,N/A,,Clear,190,2012-10-27 21:15:00
4:35 PM,51.8,21.2,30,30.14,10.0,SSW,8.1,-,N/A,,Clear,200,2012-10-27 21:35:00
4:55 PM,51.8,21.2,30,30.14,10.0,South,9.2,18.4,N/A,,Clear,190,2012-10-27 21:55:00
5:15 PM,51.8,21.2,30,30.14,10.0,South,10.4,-,N/A,,Clear,180,2012-10-27 22:15:00
5:35 PM,51.8,21.2,30,30.14,10.0,South,11.5,-,N/A,,Clear,170,2012-10-27 22:35:00
5:55 PM,50.0,21.2,32,30.14,10.0,South,10.4,-,N/A,,Clear,170,2012-10-27 22:55:00
6:15 PM,50.0,21.2,32,30.14,10.0,South,12.7,-,N/A,,Clear,180,2012-10-27 23:15:00
6:35 PM,46.4,21.2,37,30.14,10.0,South,10.4,-,N/A,,Clear,170,2012-10-27 23:35:00
6:55 PM,44.6,21.2,39,30.14,10.0,South,9.2,-,N/A,,Clear,170,2012-10-27 23:55:00
7:15 PM,44.6,21.2,39,30.15,10.0,SSE,9.2,-,N/A,,Clear,150,2012-10-28 00:15:00
7:35 PM,42.8,23.0,46,30.16,10.0,SSE,10.4,-,N/A,,Clear,150,2012-10-28 00:35:00
7:55 PM,42.8,23.0,46,30.16,10.0,SSE,10.4,-,N/A,,Clear,160,2012-10-28 00:55:00
8:15 PM,41.0,23.0,49,30.17,10.0,SSE,10.4,-,N/A,,Clear,160,2012-10-28 01:15:00
8:55 PM,41.0,23.0,49,30.18,10.0,SSE,10.4,-,N/A,,Clear,150,2012-10-28 01:55:00
9:15 PM,39.2,23.0,52,30.18,10.0,SSE,9.2,-,N/A,,Clear,150,2012-10-28 02:15:00
9:35 PM,39.2,23.0,52,30.19,10.0,SSE,11.5,-,N/A,,Clear,160,2012-10-28 02:35:00
9:55 PM,37.4,23.0,56,30.19,10.0,SSE,10.4,-,N/A,,Clear,160,2012-10-28 02:55:00
10:15 PM,37.4,23.0,56,30.21,10.0,SSE,9.2,-,N/A,,Clear,160,2012-10-28 03:15:00
10:35 PM,37.4,23.0,56,30.21,10.0,SSE,11.5,-,N/A,,Clear,150,2012-10-28 03:35:00
10:55 PM,37.4,21.2,52,30.22,10.0,SSE,10.4,-,N/A,,Clear,160,2012-10-28 03:55:00
11:15 PM,35.6,21.2,56,30.23,10.0,SSE,10.4,-,N/A,,Clear,160,2012-10-28 04:15:00
11:35 PM,35.6,23.0,60,30.22,10.0,SSE,11.5,-,N/A,,Clear,160,2012-10-28 04:35:00
11:55 PM,35.6,23.0,60,30.22,10.0,SSE,12.7,-,N/A,,Clear,160,2012-10-28 04:55:00